Theta_e
282 281 281 281 281 281 281 280 280 280 280 280 279 278 277 277 276 275 275 275 274 274 274 274 274 274 274 274 274 275 275 275 275 275 275 275 275 276 276 276 276 276 276 276 277 277 277 277 277 277 277 277 277 277 277 278 278 279 280 280 280 280 281 281 281 282 283 284 284 285 287 288 290 292 294 295 296 298 298 299 300 300 300 301 301
281 281 281 281 281 281 280 280 280 280 280 279 278 278 277 276 275 275 275 274 274 273 273 273 273 273 273 274 274 274 274 274 274 274 274 274 274 274 274 275 275 275 275 275 275 276 276 277 276 276 276 276 276 276 276 277 277 278 279 279 279 279 280 280 281 281 281 282 283 284 286 287 289 291 294 295 296 298 299 299 301 301 301 301 301
281 281 281 281 280 280 280 280 280 280 279 278 278 277 276 275 275 275 274 273 273 273 273 273 273 273 273 273 273 273 272 272 272 272 272 272 272 272 273 273 273 273 273 273 273 274 275 275 275 275 275 275 275 275 276 276 277 277 278 278 278 278 279 279 279 279 280 281 281 283 284 285 287 290 293 295 296 297 299 300 301 301 301 302 301
281 281 281 280 280 280 280 280 280 279 278 278 277 276 276 275 275 274 273 272 272 272 272 272 272 271 271 271 271 271 271 271 270 270 270 270 270 271 271 271 271 271 272 272 272 272 273 273 273 273 274 274 274 274 275 275 276 277 277 277 277 277 278 278 278 279 280 280 281 282 283 285 287 289 292 295 296 297 299 300 300 301 302 302 302
281 280 280 280 279 280 280 280 279 278 278 277 276 276 276 275 275 273 272 272 271 271 271 271 270 270 270 270 269 269 269 269 269 269 269 269 269 269 270 270 270 270 270 270 271 271 271 271 271 272 273 273 273 273 274 275 275 276 276 277 277 277 277 277 278 278 279 281 282 283 284 286 288 290 292 294 296 297 299 300 300 301 302 302 302
280 280 279 279 279 279 279 279 278 278 277 276 276 276 275 274 273 272 272 271 271 270 270 270 269 269 268 268 268 268 268 268 268 268 268 268 268 268 269 269 269 269 269 269 269 270 270 270 270 271 271 272 272 273 273 274 274 275 276 276 276 276 277 277 277 278 279 281 282 283 285 287 289 291 293 294 296 298 299 299 300 300 301 301 301
280 279 279 278 279 279 279 278 278 277 276 276 276 275 275 274 273 272 272 271 270 269 269 269 268 268 268 267 267 267 267 267 268 268 268 268 268 268 269 269 269 269 269 269 269 269 270 270 270 271 271 271 272 272 273 273 274 274 275 275 276 276 276 276 277 277 279 280 281 282 284 286 288 291 293 295 297 298 298 299 300 300 301 302 301
279 278 278 278 278 278 278 278 277 276 276 275 275 275 274 274 273 272 271 270 269 269 269 268 267 267 267 267 267 267 267 267 268 268 268 268 268 269 269 269 269 269 269 270 270 270 270 270 270 271 271 272 272 273 273 274 274 274 275 275 276 276 276 276 277 277 278 280 281 282 284 287 289 291 293 295 297 297 298 299 300 301 301 301 301
278 277 277 278 278 278 277 277 276 275 275 275 275 274 274 273 273 271 270 270 270 269 268 267 266 266 267 267 267 267 267 268 268 268 268 269 269 270 270 270 271 271 271 271 271 271 271 271 271 272 272 272 273 273 274 274 275 275 275 275 276 276 276 277 277 278 279 280 281 283 284 287 290 293 294 295 296 297 298 299 300 300 300 300 300
277 277 277 277 277 277 276 276 275 275 275 274 274 273 273 272 272 271 270 270 270 269 268 267 266 266 267 267 267 267 268 268 268 268 269 270 270 271 271 271 271 271 271 271 271 271 272 272 272 273 273 273 274 274 275 275 276 276 276 276 277 277 277 277 278 278 279 280 281 283 284 285 288 292 294 294 296 297 298 298 299 299 300 300 299
276 276 277 277 277 276 275 275 274 274 274 274 273 272 272 271 271 270 270 269 269 268 266 266 266 266 267 267 267 267 267 267 268 269 270 271 271 271 271 271 272 272 272 272 272 272 272 272 273 273 274 274 275 275 275 276 276 277 277 277 278 278 278 278 279 279 279 280 281 283 283 284 286 290 293 294 295 296 296 297 297 298 298 299 299
276 276 276 276 276 275 275 274 274 274 273 273 272 272 271 270 270 269 269 268 268 267 266 266 266 266 266 267 267 267 267 267 268 269 270 271 271 272 272 272 272 272 272 272 272 272 273 273 273 274 274 275 275 275 276 276 276 277 277 278 278 278 279 279 279 280 280 281 282 283 284 284 286 288 292 294 294 295 295 295 295 295 295 296 297
275 275 275 275 275 274 274 274 274 273 273 272 272 271 270 269 269 268 268 268 267 266 266 266 266 266 266 266 266 266 266 267 268 270 270 271 272 272 272 272 273 273 273 273 273 273 273 273 273 274 274 275 275 276 276 276 277 277 277 278 278 278 279 279 279 280 280 281 281 282 283 284 285 287 290 293 294 294 294 294 294 293 293 293 294
274 274 274 274 274 274 274 274 273 273 272 271 271 270 269 269 268 268 267 266 266 266 266 266 266 266 266 266 266 266 266 267 268 270 270 271 272 272 273 273 272 272 272 272 272 272 273 273 274 274 274 275 275 276 277 277 277 277 277 278 278 278 278 279 279 279 279 280 281 282 282 284 285 286 288 291 293 293 293 293 292 292 292 292 292
273 273 273 273 273 274 274 273 273 272 271 271 270 269 268 268 268 267 266 266 266 266 266 266 266 266 266 266 266 266 266 267 269 270 270 271 272 272 272 272 272 272 272 272 272 272 273 273 273 274 274 274 275 276 276 277 278 278 278 278 278 278 278 278 279 279 279 279 280 281 282 284 285 286 287 289 292 292 292 292 292 291 291 291 292
272 272 272 273 273 273 273 273 272 271 271 270 270 269 268 267 267 266 266 266 266 266 265 265 265 265 265 265 265 266 267 267 268 269 270 271 272 272 272 272 272 272 272 272 272 272 272 272 273 273 273 274 274 275 276 277 278 279 279 279 279 279 279 279 279 279 279 279 280 281 282 284 286 287 287 289 291 291 291 291 291 291 291 291 292
272 272 272 273 273 273 273 272 272 271 270 270 269 268 267 267 266 266 266 266 266 265 265 265 265 265 265 265 266 266 267 267 268 269 270 271 272 272 272 273 273 273 273 272 272 272 272 272 273 273 273 274 274 275 276 277 277 278 279 280 280 280 280 280 280 280 280 280 281 281 282 284 286 288 289 290 290 291 291 291 291 291 291 292 293
271 272 272 273 273 273 273 272 271 271 270 270 269 267 267 267 266 266 266 266 266 265 265 265 265 265 265 266 266 266 267 267 269 270 271 271 272 273 273 273 273 273 273 273 273 273 273 273 273 273 273 274 274 275 276 277 277 278 279 280 280 281 281 280 280 280 280 281 282 282 283 285 286 288 290 290 291 291 291 291 291 291 291 291 292
272 272 272 273 273 273 272 272 271 270 270 270 268 268 268 266 266 266 267 266 265 265 265 265 265 265 266 266 267 267 267 268 269 270 271 272 273 273 273 273 273 273 273 273 273 273 273 273 274 274 274 274 275 276 277 277 278 278 279 279 280 280 281 281 281 281 281 282 283 284 285 286 288 289 290 291 291 291 291 292 291 291 291 291 292
272 272 272 272 273 272 272 271 271 270 270 269 267 268 268 266 266 267 267 266 265 265 265 265 265 265 266 267 267 268 268 268 269 270 271 272 273 273 274 274 274 274 274 274 274 274 274 274 274 274 275 275 276 276 277 277 278 278 278 279 280 280 281 281 281 281 281 282 283 285 286 287 288 289 290 291 291 291 291 291 291 291 291 291 292
272 272 272 272 272 271 271 270 270 270 270 268 267 268 267 266 267 268 267 266 265 265 265 265 265 266 267 267 268 268 269 269 269 270 271 272 273 274 274 274 274 274 274 274 274 274 274 274 274 274 274 275 275 276 276 277 277 278 278 279 279 280 281 281 282 282 282 282 283 284 286 287 288 289 290 290 291 291 290 291 290 290 290 290 291
271 272 272 272 271 270 270 269 269 270 269 268 268 268 267 266 267 268 267 266 265 265 265 265 266 266 267 268 268 269 269 269 270 270 271 272 273 274 274 274 274 274 274 274 274 273 273 273 273 273 274 275 275 276 276 277 277 278 278 279 279 280 281 282 282 283 283 283 284 285 286 287 288 289 289 290 290 290 290 290 290 290 290 290 291
271 271 271 271 270 270 269 268 269 269 268 268 268 268 267 267 268 268 267 266 265 264 265 266 266 267 267 268 269 269 269 269 270 270 271 272 273 274 274 274 274 273 273 273 273 273 273 273 273 273 274 275 276 277 277 278 278 278 278 279 280 280 281 282 283 284 284 284 285 285 286 287 288 289 289 290 290 290 290 290 290 290 290 290 291
271 271 270 270 269 269 268 268 269 268 267 267 268 268 268 268 268 267 266 265 264 265 265 266 267 267 268 268 269 269 269 269 270 270 271 272 273 273 274 273 273 273 273 273 272 272 272 273 273 273 274 275 276 277 278 278 278 279 279 280 280 281 282 282 283 284 285 285 286 286 286 287 288 288 289 289 290 290 290 290 290 290 290 291 291
271 270 269 269 268 268 267 268 268 267 267 267 268 267 268 268 268 267 265 264 264 265 266 266 267 268 268 268 268 269 269 269 270 271 271 272 272 272 273 272 271 271 272 272 272 272 272 272 272 273 273 274 275 276 278 278 278 278 279 280 280 281 281 282 283 284 285 286 286 286 286 287 288 288 289 289 290 290 290 290 290 290 291 291 291
270 269 268 268 267 267 267 267 267 266 266 267 267 267 267 268 267 266 264 264 265 265 266 267 268 268 268 268 268 269 269 270 270 271 271 272 272 272 271 271 270 270 271 271 271 271 271 270 271 271 272 272 273 274 276 277 277 278 279 280 281 281 282 282 283 285 285 286 286 287 287 288 288 288 289 289 290 290 290 290 291 291 291 292 292
269 267 267 267 266 267 267 267 266 266 266 266 267 266 266 267 267 265 264 264 265 265 267 268 268 268 268 268 269 269 269 270 270 271 271 271 271 271 270 269 269 270 270 271 271 270 269 269 270 270 271 271 271 272 273 274 275 276 277 278 279 280 282 283 284 284 285 286 287 287 287 288 288 289 289 290 290 290 290 291 291 291 291 292 293
269 267 267 266 266 266 267 267 266 266 266 266 266 266 266 267 267 265 263 264 265 266 267 268 268 268 268 269 269 269 269 270 270 271 271 271 271 271 270 269 269 269 270 270 270 268 268 268 269 269 269 270 270 271 271 272 273 273 274 275 276 277 279 282 285 285 286 287 287 287 288 288 289 289 290 290 290 290 291 291 291 292 292 293 294
268 267 265 265 266 266 267 267 266 266 266 266 266 266 266 267 267 265 264 265 266 267 268 268 268 268 268 268 269 269 269 270 270 271 271 271 271 270 270 269 269 269 269 270 269 267 267 268 268 268 269 269 269 270 270 271 271 272 272 273 274 275 276 279 283 285 287 288 288 288 288 288 289 289 289 290 290 290 291 291 292 292 293 293 295
265 264 264 265 266 266 266 266 266 266 266 266 266 266 266 266 267 265 264 265 266 267 267 268 268 268 268 268 268 269 270 270 270 270 270 270 270 270 269 269 269 269 269 268 267 266 267 267 268 268 268 269 269 269 270 270 271 271 271 272 273 273 274 276 278 280 283 286 287 288 288 288 289 289 290 290 291 291 291 292 292 292 293 294 296
264 263 265 266 266 267 266 266 265 266 266 266 266 266 266 266 266 265 265 265 266 266 267 267 267 267 268 268 268 268 269 270 269 270 270 269 269 269 268 268 268 268 268 266 265 266 266 266 267 267 268 268 269 269 269 270 270 271 271 271 272 272 273 274 275 275 277 279 283 287 289 289 289 290 290 291 291 291 291 292 292 292 293 295 297
266 264 265 266 267 267 266 266 265 266 266 266 266 266 267 266 265 265 265 265 265 265 266 266 266 266 267 267 268 268 269 269 269 269 269 269 269 268 267 266 267 267 266 265 264 265 265 266 266 267 267 268 268 268 269 269 270 270 271 271 271 272 272 273 273 274 274 276 280 285 288 290 290 290 291 291 291 291 292 292 293 293 295 296 298
268 266 265 266 266 266 266 265 265 265 265 265 265 266 266 265 263 264 266 267 266 265 265 265 265 265 266 266 267 267 268 268 268 268 268 268 268 267 266 265 265 265 264 263 263 264 264 265 266 266 266 267 267 268 269 269 269 270 270 271 271 271 272 272 272 273 274 275 278 281 285 288 291 291 291 291 291 291 292 293 294 295 296 297 299
269 268 267 266 266 265 265 265 265 265 265 265 265 265 264 263 262 261 263 264 265 266 266 265 265 265 264 265 265 266 267 267 267 267 267 267 267 266 264 263 264 264 263 262 263 263 263 264 265 265 266 266 267 268 268 269 269 269 270 270 271 271 271 272 272 272 273 274 276 277 280 284 289 291 291 291 292 292 293 293 294 296 297 299 301
268 267 267 267 266 265 265 265 265 265 264 264 264 264 263 262 260 259 258 258 259 260 262 263 264 264 263 263 264 265 266 266 266 266 266 266 265 264 263 262 262 262 262 262 262 262 263 263 264 264 265 266 266 267 268 269 269 269 270 270 270 271 271 271 271 272 273 273 274 275 277 280 285 289 292 292 292 293 293 294 295 297 298 300 302
266 265 265 266 266 265 265 265 265 264 264 263 263 263 262 260 259 258 257 256 256 256 258 260 262 263 263 262 263 264 264 264 264 264 264 264 263 262 261 261 261 261 261 262 261 262 262 263 263 263 264 265 266 267 267 268 269 269 269 270 270 271 271 271 272 272 273 273 273 274 275 277 280 284 289 292 293 293 294 296 296 298 300 301 303
265 264 264 265 265 265 264 264 264 264 264 263 263 262 261 259 258 257 256 255 255 256 257 258 260 262 262 262 262 262 263 263 263 263 263 262 262 261 260 260 261 261 261 261 261 261 262 262 262 263 264 265 266 266 267 268 269 269 269 270 270 270 271 271 272 272 272 272 272 272 273 275 276 280 286 292 294 294 295 297 297 298 300 301 302
266 265 265 265 265 264 264 263 263 263 263 263 262 262 260 259 258 257 256 255 256 256 256 257 257 258 259 261 261 261 262 263 263 263 262 261 260 259 259 260 260 260 260 260 261 261 261 262 262 263 263 265 266 266 267 268 268 269 269 270 270 270 271 271 271 271 271 271 271 272 272 273 274 276 282 290 295 295 296 297 298 299 300 301 302
265 265 265 265 265 264 264 264 263 263 263 262 262 261 260 259 258 257 256 256 256 256 256 256 256 257 258 259 260 261 261 260 259 259 259 259 258 258 258 259 259 259 259 260 260 260 261 261 262 262 263 264 265 266 266 267 268 269 269 270 270 270 270 270 270 270 270 270 270 271 271 272 273 275 279 287 295 297 297 298 298 299 300 301 302
263 263 263 264 264 264 264 264 263 263 262 262 261 261 260 259 259 258 257 256 256 256 256 256 257 257 258 259 260 261 259 257 256 256 257 257 257 257 257 258 258 258 258 259 259 260 260 261 262 262 263 264 265 265 266 267 268 269 269 269 270 270 270 270 270 269 269 269 270 270 271 272 273 274 278 285 293 297 297 298 299 299 299 301 302
262 261 261 263 263 263 263 263 263 262 262 262 261 261 260 259 259 258 258 257 257 257 257 257 258 258 258 258 259 260 258 256 255 255 256 256 256 257 257 257 257 257 258 258 259 259 260 261 262 262 263 264 265 265 266 267 268 269 269 269 270 270 270 270 269 269 269 269 269 270 270 271 273 274 277 282 289 296 297 298 298 299 299 300 301
263 261 261 262 263 263 263 262 262 262 262 261 261 260 260 259 259 259 258 258 257 257 257 258 259 259 259 259 259 259 258 257 256 256 256 256 257 257 258 258 258 258 258 258 258 259 260 261 261 262 263 264 264 265 265 267 268 269 269 269 270 270 270 269 269 269 269 269 269 269 270 271 272 274 277 280 286 293 297 298 298 299 299 299 300
264 263 263 263 263 263 263 262 262 261 261 261 261 260 260 259 259 259 258 258 257 257 257 258 259 260 260 260 259 259 259 258 257 256 256 256 257 258 258 259 259 259 260 259 259 259 260 261 261 262 263 264 264 265 265 266 268 269 269 269 270 270 270 269 269 268 268 268 268 269 270 271 272 274 276 279 284 291 295 297 298 299 299 299 299
264 264 263 262 262 262 262 262 261 261 261 260 260 260 259 259 259 259 258 258 258 258 257 258 259 259 260 260 260 259 259 258 257 257 257 257 257 258 259 259 260 261 261 261 261 260 260 261 262 262 263 264 265 266 266 266 268 269 269 269 270 270 269 269 269 268 268 268 268 269 269 270 271 273 275 278 283 289 293 296 297 298 299 299 299
264 263 262 262 261 261 261 261 261 261 260 260 259 259 258 258 259 258 258 258 258 258 258 258 258 259 259 259 259 258 258 257 257 257 257 257 257 258 259 260 260 261 261 262 262 262 261 261 262 262 263 264 265 266 266 267 268 269 269 269 270 270 269 269 268 268 268 268 268 268 269 270 271 272 275 278 282 287 291 294 295 297 298 298 298
264 263 263 262 261 261 260 260 260 260 260 260 259 259 258 258 258 258 258 258 258 258 258 258 258 258 258 258 258 258 257 257 257 257 258 258 258 258 259 260 261 261 262 262 262 262 262 262 262 263 263 264 265 266 267 267 268 268 269 269 270 270 269 268 268 268 267 267 267 268 268 269 270 272 274 277 281 287 291 292 294 296 297 297 298
264 263 263 262 261 261 260 260 260 260 260 259 259 259 258 258 258 258 258 258 258 258 258 258 258 258 258 258 258 257 257 257 257 258 258 258 259 259 260 260 261 261 262 263 263 263 262 263 263 263 264 264 265 266 267 267 268 268 269 269 270 270 269 268 268 267 267 267 267 267 268 269 269 271 272 275 279 285 290 293 293 294 296 297 297
263 263 263 262 262 261 260 260 259 259 259 259 259 259 258 258 258 258 258 258 258 258 258 258 258 258 258 258 258 257 257 257 258 258 259 259 259 260 260 260 261 261 262 262 263 263 263 263 263 264 264 265 265 266 267 267 268 268 269 269 269 270 269 268 268 267 267 267 267 267 267 268 268 270 271 272 275 279 287 292 293 293 294 295 296
263 262 262 262 262 261 261 260 260 260 259 259 259 259 258 258 258 258 258 258 258 258 258 258 258 258 258 258 258 258 258 258 259 259 259 259 259 260 260 261 261 261 261 262 263 263 263 263 264 264 265 265 266 266 267 268 269 269 269 269 269 269 269 268 268 267 267 267 267 267 267 267 268 268 270 271 272 275 280 286 291 293 293 294 294
263 263 262 261 261 261 261 260 260 260 259 259 259 259 259 258 258 258 258 258 258 258 258 258 258 258 258 258 258 258 258 258 259 259 259 259 259 260 260 261 261 261 262 262 262 263 263 263 264 264 265 265 266 266 267 268 269 269 269 269 269 269 269 269 268 267 266 266 267 267 267 267 267 268 268 269 270 272 274 278 283 288 292 293 293
262 262 262 261 261 260 260 260 260 259 259 259 259 259 259 259 258 258 259 259 259 258 258 258 258 258 258 258 258 258 258 259 259 259 259 259 259 259 260 261 261 261 262 262 262 263 263 263 264 264 264 265 266 266 267 267 268 269 269 269 269 269 269 269 268 267 266 266 266 266 266 267 267 267 267 268 269 270 271 273 276 280 285 290 293
Wind_Speed
29 28 27 26 25 22 20 17 14 12 11 10 11 11 12 13 13 14 15 16 15 15 16 15 15 15 15 16 17 17 18 19 19 20 21 22 23 24 24 24 26 28 29 30 30 30 32 33 33 33 32 32 35 34 32 32 32 33 33 33 33 33 33 28 17 18 29 35 35 36 37 38 40 41 42 44 46 42 38 39 39 38 38 36 37
29 28 27 26 24 21 18 16 13 11 10 10 10 10 11 12 13 14 15 15 15 15 15 14 14 14 15 16 17 18 19 20 20 20 21 22 23 24 23 24 26 28 29 31 30 30 31 33 33 32 32 33 35 34 32 32 32 33 34 33 33 32 30 29 21 14 19 27 30 32 34 34 37 40 41 44 46 41 36 35 34 36 38 35 36
30 29 27 26 23 20 18 15 12 11 9 9 9 9 11 12 13 14 14 14 14 13 13 13 14 15 16 17 17 17 18 19 19 19 20 21 22 23 23 24 27 29 29 31 31 30 31 33 33 32 31 33 34 32 32 33 32 33 35 33 33 33 31 30 27 19 16 23 31 35 35 35 38 40 41 43 45 41 35 33 33 35 36 34 34
31 30 27 25 22 20 17 14 12 10 9 9 8 9 10 11 12 13 13 13 13 13 13 13 14 15 15 16 16 17 18 18 19 19 19 20 22 23 23 24 26 28 29 30 30 30 31 33 32 31 31 33 33 32 31 32 32 32 33 33 32 33 32 31 30 28 24 22 27 35 37 35 37 41 41 42 42 38 32 31 32 33 33 32 33
32 30 27 25 22 19 16 14 12 10 8 8 8 9 10 11 12 12 11 12 13 13 14 14 14 14 15 15 16 17 18 18 19 19 20 20 21 23 24 24 26 28 29 30 30 30 31 32 32 31 31 33 33 32 31 31 31 31 32 32 31 31 30 30 30 32 31 25 24 31 34 31 33 39 42 40 38 33 28 27 29 31 32 32 32
32 30 27 24 21 19 17 14 12 10 8 8 8 9 10 10 11 11 11 13 14 14 14 15 15 15 15 16 16 17 18 18 18 19 20 21 21 22 23 24 26 29 30 30 30 30 31 31 31 31 31 32 33 31 31 31 31 31 32 32 32 31 30 31 31 32 33 30 26 27 29 29 30 33 38 40 35 27 22 23 25 29 31 31 32
32 30 27 24 21 19 17 14 12 10 8 8 8 8 9 10 11 11 11 12 13 14 15 15 15 15 16 16 16 17 18 18 19 19 20 20 21 22 24 26 28 30 31 31 32 33 33 33 33 32 32 32 33 33 32 32 31 31 32 31 31 31 31 31 31 31 32 30 26 26 27 29 30 31 35 37 31 23 20 18 18 23 26 27 30
32 30 27 24 22 20 17 14 12 10 9 8 8 8 9 10 10 10 10 11 12 13 15 15 15 15 15 16 16 17 17 18 18 18 19 20 21 23 25 27 29 30 31 32 32 33 34 35 35 35 35 34 34 35 33 32 31 31 31 30 30 30 30 29 29 29 29 26 24 24 25 24 27 30 31 27 20 17 17 15 15 20 23 24 26
32 30 27 25 23 20 17 14 12 10 9 7 7 8 9 9 9 9 9 11 12 14 14 14 14 14 15 15 15 16 16 17 17 17 19 20 22 24 25 26 27 30 31 32 33 33 33 34 35 36 37 37 38 38 37 36 34 32 32 31 30 30 30 29 28 28 27 21 18 19 18 16 20 22 21 19 15 13 13 13 15 20 23 24 27
33 30 28 25 23 20 17 14 12 10 9 8 8 8 8 8 8 8 9 11 12 13 14 13 12 13 14 14 15 15 16 17 18 19 21 23 25 26 27 26 26 28 32 34 35 34 34 34 36 36 37 39 39 40 40 40 39 38 37 36 34 32 31 29 28 28 25 17 14 16 12 10 18 21 18 18 17 13 11 10 11 16 18 19 22
33 30 27 25 22 19 16 14 12 10 9 8 8 7 7 6 6 8 9 11 12 12 12 11 11 12 13 14 15 16 18 19 20 22 24 25 27 29 29 29 27 26 29 33 34 35 34 34 35 36 36 37 37 38 39 40 40 40 41 41 40 38 35 32 30 30 27 21 18 18 11 9 19 24 21 19 17 14 12 10 9 10 10 9 11
32 29 26 24 22 19 17 15 12 11 10 9 8 6 5 5 5 7 9 10 10 10 10 11 11 12 12 14 16 18 20 22 22 24 25 27 28 29 30 30 28 26 29 32 34 35 34 34 34 34 34 35 35 36 36 37 38 38 39 40 40 41 41 39 36 34 30 25 21 21 17 15 20 24 22 18 17 16 14 11 10 9 9 8 7
31 28 26 24 22 19 17 15 13 12 10 9 7 5 4 4 5 7 8 9 9 9 10 10 11 12 13 16 18 19 22 24 24 25 27 28 29 29 31 30 28 28 31 32 33 34 33 34 34 34 33 34 34 34 35 36 36 37 39 39 39 41 42 43 43 41 39 33 27 27 27 24 22 24 24 20 16 15 13 10 11 11 11 10 10
30 28 26 24 22 19 17 15 14 12 10 8 6 4 2 3 4 6 7 7 8 9 10 11 13 14 16 18 19 21 24 26 25 27 29 29 29 30 30 28 27 29 32 32 32 33 33 34 35 34 33 33 32 33 33 34 34 35 37 37 38 39 39 40 42 42 43 40 35 35 36 34 30 29 29 24 17 13 12 11 13 15 17 19 22
29 28 26 24 22 20 18 16 14 12 10 8 5 3 1 3 4 5 6 6 7 8 10 13 16 17 19 21 22 24 27 27 26 29 30 30 31 31 28 26 26 28 31 31 33 33 33 34 35 35 35 35 34 33 33 33 33 33 34 35 36 36 36 38 39 38 39 38 37 37 38 38 37 34 32 30 23 18 17 17 19 21 23 24 26
28 27 26 24 22 20 18 17 15 12 10 8 5 2 1 2 3 5 6 6 8 9 12 15 15 15 15 19 23 27 29 28 26 29 30 30 31 29 25 25 27 28 30 32 33 34 34 34 35 35 36 35 35 36 36 35 35 34 35 35 32 31 33 36 38 39 40 38 39 40 41 40 39 36 34 33 29 26 25 22 22 22 17 14 14
28 27 27 25 23 21 19 17 15 13 11 8 5 2 1 2 3 4 5 7 9 11 13 15 15 13 13 18 24 28 30 29 27 28 30 30 31 27 25 26 27 27 29 31 32 33 33 33 34 35 36 36 36 37 37 37 37 37 37 36 33 32 32 32 34 39 40 38 39 42 44 44 43 40 38 36 33 31 25 17 16 15 10 7 7
29 29 28 25 23 21 19 17 15 13 11 8 4 2 1 2 3 3 6 8 10 12 14 16 17 16 18 23 26 27 28 27 26 27 29 29 29 26 25 28 28 28 29 32 33 34 34 35 36 37 38 37 37 38 37 37 38 37 35 33 31 31 30 29 30 34 33 33 36 40 43 44 44 42 40 37 34 32 26 19 15 12 7 6 7
32 30 28 25 23 21 19 16 15 13 10 7 4 2 0 2 3 5 7 9 10 12 13 15 18 20 22 25 24 23 24 25 25 26 28 30 29 26 23 24 27 28 29 30 31 32 34 36 36 36 38 38 38 38 38 37 36 35 34 32 29 28 28 28 29 29 26 26 29 32 35 36 36 38 40 38 35 32 29 25 22 17 10 7 7
32 30 28 25 23 20 18 16 14 11 9 6 4 2 1 2 4 6 8 9 10 11 13 16 18 19 19 19 19 20 21 23 24 26 29 30 29 28 27 24 23 25 27 27 27 28 30 32 33 33 35 37 38 39 39 38 37 36 34 32 28 28 29 29 29 28 25 25 26 27 28 28 26 28 31 32 31 30 30 30 28 26 19 12 10
30 29 27 24 22 19 17 15 13 10 8 6 4 2 1 2 4 7 9 10 11 13 16 17 16 15 16 17 18 19 20 23 26 28 29 30 30 31 30 27 25 28 31 30 29 30 31 32 32 33 35 36 38 39 40 40 39 37 35 34 33 33 33 33 31 29 26 26 26 26 26 25 24 23 24 26 27 27 29 32 32 31 28 22 17
30 29 26 24 22 18 16 14 11 9 8 5 3 2 1 3 5 7 9 10 12 13 13 13 13 15 17 17 17 18 20 23 26 28 29 30 31 32 31 29 30 33 34 32 31 32 33 33 33 34 36 38 40 40 41 41 39 37 37 37 38 38 38 37 34 29 26 24 24 23 22 21 21 21 22 25 26 26 28 30 31 33 34 33 30
29 27 25 24 21 18 16 14 11 9 7 5 3 2 1 3 5 7 8 9 10 10 10 11 13 17 17 16 16 18 20 22 25 28 29 29 31 32 31 31 33 34 32 31 32 32 32 33 35 37 40 41 42 43 43 42 40 38 37 37 38 39 38 35 32 28 26 25 24 22 21 21 19 18 20 23 24 26 28 30 31 34 35 36 37
28 26 26 24 21 19 16 13 11 9 7 5 3 2 1 3 5 7 9 8 7 7 10 12 15 16 16 17 18 18 20 23 25 26 28 29 31 32 32 32 35 34 32 30 31 31 33 35 38 40 41 40 40 41 40 38 37 36 36 37 37 36 34 31 29 27 25 24 23 21 21 21 20 19 21 22 22 24 28 30 32 34 35 35 36
29 28 26 24 22 20 17 14 11 9 7 5 4 3 2 4 6 8 8 6 4 7 10 11 13 14 15 17 19 19 21 24 24 25 27 30 31 32 32 33 35 34 31 29 29 31 34 37 38 37 36 35 36 35 30 28 29 30 32 33 32 31 30 29 28 26 23 22 22 22 22 22 21 22 23 23 22 23 26 28 29 31 33 33 33
31 28 26 24 23 21 18 15 12 9 7 6 4 3 3 5 7 7 6 3 4 7 9 10 11 14 16 17 19 21 22 22 23 25 28 30 31 31 31 32 33 32 30 29 29 30 31 32 32 32 32 31 31 29 24 21 22 24 26 28 28 28 29 28 26 24 23 23 22 21 22 21 21 22 24 23 24 25 25 24 24 26 27 27 26
31 28 26 25 23 21 18 16 13 10 9 7 6 5 4 6 7 6 3 3 5 8 9 10 12 13 15 16 17 20 22 22 23 26 28 30 31 30 29 30 30 30 29 28 27 28 28 28 29 29 29 29 28 26 25 23 22 21 21 21 21 22 26 28 28 27 25 25 24 22 22 21 21 23 24 24 25 27 26 24 22 22 23 22 19
32 29 27 26 24 21 19 17 14 12 10 9 8 6 5 6 7 4 0 2 5 8 10 12 13 13 15 16 17 19 20 21 23 27 30 31 32 31 30 30 29 29 30 29 27 26 26 26 26 26 27 26 26 25 24 23 22 21 21 21 21 23 25 24 26 27 25 24 23 22 22 21 21 23 24 23 23 25 25 24 22 21 21 19 15
31 29 27 26 24 21 19 17 15 13 11 10 8 6 5 5 6 4 0 3 6 10 11 12 12 14 15 16 16 18 19 21 25 29 31 31 32 31 30 31 30 29 31 30 26 24 24 24 24 24 25 24 24 24 24 24 23 22 22 22 22 23 25 24 20 19 21 22 23 22 21 20 21 23 22 21 22 24 24 22 21 20 19 18 14
31 28 27 26 24 22 19 17 15 13 12 12 9 7 6 4 4 3 1 4 7 9 10 11 13 14 15 15 16 17 20 23 27 29 29 30 31 30 30 31 30 30 32 30 24 20 21 22 22 23 23 23 23 23 23 23 23 23 23 23 22 21 22 22 22 20 18 18 21 22 21 20 21 22 21 20 20 21 21 21 21 20 19 16 12
32 28 27 26 24 23 20 17 15 13 12 11 10 10 9 6 3 3 0 4 7 7 8 9 12 13 14 15 16 17 20 24 26 27 28 29 30 30 30 30 29 30 31 27 21 19 20 20 20 22 23 22 22 22 23 23 23 23 24 22 21 21 21 20 21 22 23 22 21 20 21 22 22 22 21 20 19 19 19 20 21 21 20 18 12
35 31 29 27 25 23 21 18 16 14 12 10 9 9 9 7 4 2 1 3 4 5 8 11 13 13 14 16 17 19 22 24 25 26 27 27 29 30 29 28 28 31 31 27 21 20 21 19 19 22 23 22 22 23 24 23 23 23 23 22 22 21 20 21 22 22 21 21 21 20 19 21 22 22 20 19 19 18 17 17 19 20 19 18 15
38 34 32 29 27 24 21 19 17 15 13 12 10 10 9 8 6 5 6 5 2 1 5 11 14 15 15 17 19 21 23 25 25 26 27 27 29 30 28 26 26 27 28 25 21 21 21 20 21 22 22 23 24 24 24 24 25 24 23 23 23 23 22 23 23 21 20 20 20 21 21 20 21 21 20 20 21 20 16 16 18 18 15 12 12
37 35 33 32 29 25 22 21 18 16 15 12 11 11 10 6 4 5 9 9 7 6 8 12 15 15 17 19 21 22 24 25 24 25 26 26 28 28 26 25 25 25 25 22 20 20 21 21 22 23 23 24 25 25 24 25 25 25 25 24 24 24 24 24 21 19 19 20 20 20 22 22 21 19 19 20 20 18 16 15 15 13 10 9 9
35 33 32 31 29 27 24 22 20 18 16 14 13 12 9 6 3 2 4 6 8 11 13 14 15 15 16 19 20 21 23 25 24 24 26 26 28 28 25 24 26 26 26 24 22 21 21 21 23 24 25 25 25 25 25 26 26 26 26 26 26 26 26 24 22 21 20 20 20 21 21 23 23 20 19 19 17 13 12 12 13 13 11 9 9
34 33 31 30 29 27 25 22 21 18 16 15 14 12 9 7 4 2 1 3 6 8 11 15 16 14 15 18 20 21 24 25 24 23 24 25 26 26 23 21 22 23 23 24 23 22 22 22 23 24 26 25 26 26 26 26 27 28 27 27 27 27 26 23 22 23 23 21 20 21 21 22 23 23 21 18 17 15 14 13 14 15 14 13 11
36 34 32 30 29 28 25 22 21 18 16 15 14 11 10 7 5 3 2 3 4 5 8 13 16 16 16 20 23 23 25 25 24 24 25 27 29 27 22 19 19 20 21 22 20 20 23 23 22 24 26 26 27 28 28 27 28 29 29 28 26 25 25 25 25 25 25 23 21 21 22 22 23 25 23 16 14 15 17 17 14 13 15 18 16
36 35 34 32 30 28 26 23 21 18 17 15 13 12 10 8 5 4 2 1 2 3 7 10 13 13 15 19 22 22 24 26 27 28 30 32 31 28 23 20 19 19 20 20 19 19 21 23 24 27 29 28 28 29 29 29 29 29 29 29 27 26 26 26 25 24 23 22 21 21 22 22 22 25 25 18 13 14 15 16 14 10 11 15 14
34 34 33 31 30 28 26 24 21 19 17 15 13 12 10 8 6 4 2 1 2 4 7 9 10 11 13 16 20 21 22 24 24 25 28 31 30 27 24 21 20 21 20 20 21 22 24 27 32 35 33 30 30 31 30 29 29 30 30 29 27 27 27 25 24 24 24 23 23 22 23 23 23 26 26 20 16 16 14 14 14 10 7 9 13
35 33 32 31 30 27 25 23 21 19 17 15 14 12 10 8 7 5 3 2 3 5 7 8 10 11 12 14 17 18 19 21 20 20 24 27 30 31 28 24 23 24 24 23 24 27 31 34 39 40 36 33 34 35 32 30 30 32 32 30 28 28 27 25 24 24 24 24 25 24 23 24 24 24 24 20 14 16 15 13 14 13 10 11 16
37 34 31 30 30 27 25 23 20 18 17 15 13 12 10 8 7 5 4 4 4 5 7 8 10 11 12 13 14 14 16 18 20 21 23 25 28 31 31 30 30 30 29 28 29 32 36 39 42 42 40 40 42 42 37 31 31 34 34 31 29 30 30 28 26 25 24 25 25 24 24 24 23 22 20 20 16 13 16 14 13 14 12 13 16
39 35 32 31 30 28 26 23 20 18 17 15 13 11 10 8 7 5 4 4 4 5 6 8 10 11 11 12 13 14 16 19 21 22 25 26 28 30 31 32 33 33 33 33 33 34 36 38 41 43 43 43 47 49 42 35 33 36 36 33 30 31 32 32 31 28 26 25 25 25 25 24 23 21 19 18 17 11 13 14 13 14 13 11 12
39 37 35 33 30 27 25 24 21 18 17 15 13 11 9 8 7 6 4 4 4 5 7 9 11 12 12 13 14 15 18 20 21 23 24 26 28 29 31 33 34 35 36 36 36 36 36 37 40 44 45 44 46 50 46 38 34 34 34 33 31 31 32 33 33 32 30 28 26 27 26 24 21 19 17 16 15 11 9 12 12 13 13 10 10
38 37 34 32 29 26 25 23 20 18 17 15 13 11 9 8 7 6 5 5 5 5 7 9 11 12 13 14 15 17 19 20 21 22 24 25 27 29 30 32 34 35 36 37 38 38 38 39 41 44 46 47 48 50 48 40 34 35 36 34 32 33 34 35 35 36 35 33 30 28 27 24 21 18 15 14 14 11 7 10 11 12 13 11 9
38 37 35 32 29 27 25 22 20 19 17 15 13 12 10 8 7 6 5 5 5 5 6 8 10 12 14 15 16 18 19 20 21 22 23 25 26 28 29 31 33 34 35 37 39 39 39 40 42 44 46 48 49 50 47 40 36 40 41 36 33 34 37 37 38 38 37 35 32 29 27 25 22 19 16 14 14 13 7 8 10 11 11 11 9
37 36 34 32 30 28 25 23 20 19 17 15 14 12 11 9 7 6 5 5 4 5 6 8 9 11 13 15 16 17 18 19 20 22 23 24 25 26 28 30 32 33 34 36 38 39 40 40 41 43 45 47 49 50 47 40 37 41 44 40 37 38 40 39 39 39 38 37 34 30 27 25 23 22 20 17 16 14 10 7 9 10 10 11 11
36 35 33 32 30 28 25 23 21 19 17 16 14 12 11 9 8 6 5 4 4 5 6 7 9 11 12 14 15 17 18 19 20 21 22 23 24 25 27 29 31 33 34 35 36 38 40 40 41 42 44 46 48 50 47 39 36 41 45 44 43 44 44 43 42 40 40 40 38 33 30 26 24 24 23 20 17 15 10 8 9 10 10 12 13
35 34 32 30 29 27 25 24 22 19 18 16 14 12 11 10 8 6 5 4 4 4 5 7 8 10 12 13 14 16 17 18 20 21 21 22 23 24 26 28 30 32 33 34 36 37 39 40 40 41 43 45 48 50 45 37 34 40 46 47 48 49 48 45 45 44 43 42 41 39 34 30 26 25 23 21 20 18 10 5 9 10 10 10 12
34 33 31 29 28 27 25 23 22 20 18 16 15 13 11 10 8 7 5 4 3 4 5 6 8 9 11 12 14 15 16 17 19 20 21 22 23 24 25 26 28 30 32 34 35 37 39 40 39 40 42 43 46 48 44 35 32 39 45 47 50 52 50 47 48 49 47 43 43 44 40 34 29 28 26 23 24 23 18 10 1 8 11 10 10
33 31 30 28 27 25 23 22 21 19 18 16 15 13 12 10 8 7 5 3 3 3 4 6 7 9 10 12 13 15 16 17 18 20 21 21 22 23 24 25 27 29 31 33 34 35 37 39 40 40 41 42 45 46 42 35 34 38 42 45 49 53 53 50 50 52 50 45 43 44 43 39 36 34 32 29 28 26 22 20 15 5 6 9 10
31 30 29 27 26 25 23 22 20 19 18 16 15 13 12 10 8 6 5 3 2 2 3 5 6 8 9 11 13 14 15 16 18 19 20 21 22 22 23 24 26 28 30 32 33 35 36 38 40 40 40 42 45 44 39 35 36 39 40 42 47 52 54 52 49 50 50 47 44 44 46 44 40 36 33 31 31 28 23 21 21 17 9 2 6
Wind_Direction
192 193 194 195 197 198 201 207 213 223 235 249 262 272 280 283 286 288 291 295 296 296 297 297 295 294 293 292 291 289 286 285 284 282 281 280 278 277 276 273 269 270 271 269 266 265 266 264 261 261 262 262 262 262 260 259 259 256 254 255 254 254 255 255 260 270 270 270 271 271 269 268 271 274 275 274 272 270 269 270 270 272 274 274 273
190 192 192 193 195 197 201 206 212 223 236 250 264 274 281 284 287 290 296 298 297 299 299 294 290 292 292 290 289 287 285 285 284 282 281 280 280 281 279 276 274 273 273 271 269 269 268 265 264 266 266 264 261 261 262 261 259 256 255 256 256 255 255 258 264 274 275 273 273 274 273 272 272 274 274 272 268 264 264 265 265 269 272 271 273
189 190 191 192 194 197 200 205 211 222 235 249 263 274 280 283 288 293 297 299 299 297 295 289 288 291 290 289 289 286 284 285 284 282 282 283 282 281 280 279 278 277 275 274 274 272 269 267 268 269 269 266 264 263 264 263 259 257 257 256 257 259 258 259 262 267 273 273 271 270 271 272 271 272 274 270 264 262 263 263 264 267 268 266 270
188 188 189 191 193 196 199 203 209 219 232 247 263 273 279 285 291 296 297 298 298 294 292 292 290 291 290 288 288 287 285 285 285 284 284 284 283 282 282 281 279 277 277 276 277 274 271 271 272 272 270 268 267 266 266 264 260 259 260 259 259 261 261 259 259 263 268 269 266 264 265 267 267 269 272 270 263 261 262 265 268 268 266 266 268
186 187 188 190 192 194 197 201 207 216 230 247 262 271 279 286 291 295 294 294 296 296 296 297 294 291 290 288 287 286 286 285 286 287 285 284 284 283 284 283 280 278 276 275 276 274 272 272 273 273 272 269 269 269 267 266 264 262 261 261 262 262 262 261 261 264 266 265 264 263 262 262 265 267 267 266 264 261 260 264 270 270 268 269 270
184 186 187 188 190 192 195 199 205 213 227 242 257 268 277 284 288 293 293 295 301 302 301 303 299 294 292 288 286 285 286 287 287 288 288 287 286 285 284 284 283 280 275 274 274 272 270 270 271 271 271 269 269 269 268 267 266 265 263 263 264 264 264 263 263 265 266 267 269 271 270 268 267 269 267 263 259 260 265 268 270 270 267 269 271
184 185 186 186 188 190 193 197 202 210 223 235 249 262 274 281 286 292 295 301 306 306 307 308 303 298 293 288 286 286 288 290 289 288 289 289 289 288 286 285 283 279 274 273 272 270 267 265 266 268 267 268 268 267 268 267 265 264 263 264 264 264 264 264 265 267 267 269 270 268 267 267 266 269 270 263 253 253 265 271 272 271 264 263 269
182 183 184 185 187 189 191 194 199 207 217 228 244 259 270 279 286 295 302 308 310 310 312 309 304 301 294 287 287 290 291 291 290 290 291 291 291 289 287 285 282 279 276 274 272 270 268 264 263 264 263 265 267 265 264 265 265 265 263 262 263 263 265 265 266 268 267 268 269 265 263 264 263 266 267 262 252 248 256 264 271 274 269 265 267
181 182 183 184 186 187 188 191 197 204 212 224 241 254 266 277 291 302 309 315 316 315 316 311 303 298 292 288 291 293 292 289 288 291 293 294 292 290 288 287 286 285 283 281 279 276 275 272 268 265 261 260 265 265 263 262 263 264 263 263 262 262 264 265 265 268 268 268 271 270 270 271 267 264 258 252 251 253 259 266 272 277 277 274 270
180 181 182 182 183 184 186 189 193 198 207 220 235 249 264 279 297 310 316 321 319 319 320 314 300 291 291 294 295 293 291 289 289 292 294 294 294 293 292 288 286 285 285 285 284 281 280 278 276 274 268 263 264 265 264 264 263 263 263 264 263 262 263 263 263 265 267 269 270 270 270 271 272 272 263 256 261 265 268 275 283 287 285 281 278
180 180 180 180 181 182 184 187 190 196 205 217 232 247 263 281 306 318 321 323 321 321 320 308 294 291 294 298 297 294 292 291 293 296 296 297 296 295 293 290 287 285 283 284 285 283 283 281 278 279 276 271 268 265 264 263 263 264 266 265 264 264 263 264 265 265 265 267 269 268 267 266 273 277 274 268 267 270 274 281 291 300 294 286 290
179 179 178 179 180 180 183 185 188 195 204 216 230 245 266 292 319 324 322 324 323 321 312 297 296 300 298 299 300 297 296 296 298 300 300 300 299 297 295 292 289 286 284 284 284 284 285 283 281 280 277 275 273 270 266 263 262 263 266 266 265 265 264 264 265 266 267 267 267 265 263 261 267 273 275 271 267 271 279 281 281 293 292 285 295
177 177 176 178 179 180 183 184 187 195 203 214 227 241 272 306 328 325 323 325 320 314 309 302 303 307 303 304 303 298 301 304 303 303 304 303 302 300 296 292 290 288 287 287 286 286 285 284 283 281 278 277 276 273 270 267 266 266 266 266 266 266 266 265 263 264 266 266 266 265 264 264 263 265 272 275 269 269 275 280 283 290 285 280 288
176 176 176 177 179 181 183 183 186 194 200 209 221 232 275 321 332 326 324 325 314 308 312 311 312 315 314 312 306 302 307 311 308 306 308 307 305 303 299 295 292 290 289 288 287 285 284 284 283 281 281 280 278 277 274 269 268 266 263 264 265 264 265 265 264 264 264 263 264 263 262 262 260 260 267 273 270 266 272 282 285 288 287 287 289
174 175 175 177 180 181 182 184 187 191 196 205 215 221 282 327 333 328 322 320 313 308 314 317 317 321 324 321 313 310 312 313 309 309 310 309 308 307 302 296 292 290 289 289 287 285 284 283 283 282 281 280 277 277 277 274 272 267 262 260 258 256 257 259 261 262 261 261 262 262 261 260 258 256 259 262 264 268 275 280 282 286 290 291 293
173 174 175 178 181 182 182 184 186 188 192 200 204 203 274 318 332 329 323 325 322 316 319 321 316 312 316 321 317 314 316 316 310 309 311 310 309 307 299 294 293 291 291 291 289 286 283 282 281 280 279 279 277 276 277 277 277 274 269 264 257 251 251 254 258 261 260 259 262 265 266 265 260 256 253 254 260 267 271 274 276 281 285 286 294
173 175 177 180 181 182 183 184 185 186 190 194 194 193 263 322 330 326 329 334 330 325 325 326 321 309 306 317 318 315 316 318 313 309 311 311 309 306 301 298 296 292 291 293 292 287 283 280 280 280 280 279 278 277 277 278 278 277 275 272 266 260 257 256 261 265 263 260 262 265 267 266 263 258 252 250 254 257 256 259 263 269 278 278 291
174 177 179 180 181 182 182 183 184 187 188 188 185 187 251 326 340 346 347 340 332 332 331 327 325 320 316 320 320 311 308 312 311 310 312 313 311 308 303 300 297 291 289 291 290 288 285 282 281 280 278 277 277 278 277 276 275 274 275 277 272 267 263 259 261 266 265 262 263 264 264 263 261 256 250 247 249 247 243 244 250 255 269 274 282
176 177 178 179 180 180 180 182 185 187 187 185 180 178 291 358 7 3 354 345 336 334 333 326 323 324 323 323 319 308 303 305 306 307 311 313 312 310 304 298 293 290 288 284 282 282 283 283 282 280 278 277 278 279 277 276 275 275 277 280 278 275 272 264 258 262 265 265 267 268 265 262 259 253 248 245 246 244 240 243 247 248 256 270 271
175 175 176 177 178 178 178 180 183 185 185 182 176 166 58 21 14 2 353 347 338 331 334 333 325 321 321 318 311 305 301 301 304 308 311 313 314 313 310 303 297 295 294 290 286 286 287 288 288 286 283 282 282 281 279 276 275 276 276 276 276 278 279 270 258 256 260 264 268 273 273 269 263 253 245 242 241 239 239 243 245 245 247 252 256
172 172 173 173 175 176 176 177 179 181 181 178 172 163 77 19 8 360 352 344 338 335 340 340 327 316 314 310 305 304 303 304 307 311 314 315 316 316 314 311 308 306 304 302 299 298 298 297 296 293 290 289 287 284 282 280 277 275 274 272 274 277 279 276 267 259 257 259 263 267 270 269 263 253 246 242 237 234 236 240 242 243 242 241 246
170 170 170 170 172 172 171 173 173 173 175 175 172 174 10 5 3 358 350 343 341 340 339 335 323 316 315 312 307 305 306 308 311 313 315 316 316 318 317 315 314 312 308 305 303 302 302 301 299 297 295 292 289 285 283 281 278 276 273 271 273 275 277 278 275 265 256 254 256 257 258 259 257 250 245 243 238 233 234 235 236 241 243 243 246
169 168 167 167 167 167 166 168 167 166 169 168 161 172 340 5 8 1 354 351 347 339 333 331 324 319 316 313 311 309 310 313 315 316 318 319 319 321 319 317 318 315 309 306 306 305 305 304 304 303 301 298 294 289 284 280 276 273 271 271 272 274 276 278 277 269 258 251 252 253 251 250 250 247 243 240 235 231 232 233 234 239 243 245 249
167 166 165 163 162 163 163 163 163 161 160 157 152 146 64 29 23 13 4 359 348 332 332 331 323 318 317 316 315 314 314 317 319 320 321 322 323 324 321 320 321 318 312 309 309 308 310 310 309 309 308 306 304 299 290 283 278 275 274 274 274 275 276 274 273 270 261 251 248 249 249 246 242 242 243 241 236 233 235 236 235 238 242 246 250
165 164 163 162 162 162 160 158 159 159 154 149 147 133 78 44 35 24 12 2 339 329 329 322 314 317 321 319 316 316 318 319 321 324 326 327 327 327 325 323 322 320 316 314 313 314 315 314 314 316 316 316 316 313 301 287 281 278 276 275 274 272 271 269 267 265 259 252 249 248 248 245 240 243 246 244 241 238 236 236 235 236 243 248 253
164 163 163 162 162 160 156 153 154 155 151 146 140 127 84 51 43 34 17 349 325 322 316 310 315 322 322 318 318 319 320 322 324 327 330 332 331 330 329 326 324 323 321 318 320 321 320 318 321 324 323 322 324 326 322 311 301 292 285 281 276 268 262 259 259 258 254 251 250 248 248 245 240 243 246 242 241 240 235 234 233 234 241 247 253
162 162 162 161 161 158 153 151 151 149 146 141 137 128 91 57 52 49 26 321 318 317 312 317 326 326 321 319 321 322 323 327 330 332 335 337 335 334 333 330 329 329 326 325 329 328 322 321 325 328 327 328 330 333 335 334 328 319 311 306 299 288 275 259 249 248 251 250 248 246 248 247 242 243 243 238 238 239 234 232 233 234 241 245 249
162 161 161 161 159 156 153 153 151 146 140 136 136 133 111 73 62 64 54 285 307 314 320 327 328 324 322 322 323 325 327 331 335 336 338 339 338 337 336 334 334 334 333 332 334 330 325 325 329 331 332 335 337 337 337 335 331 325 322 319 318 318 312 288 257 243 242 246 247 245 245 243 239 241 241 237 238 239 233 229 231 233 238 240 241
161 160 160 159 156 153 153 154 152 145 135 128 126 126 118 88 68 70 113 293 311 316 320 325 326 326 326 326 327 328 330 334 336 338 340 341 340 340 340 338 337 339 340 339 334 330 331 334 335 335 335 337 340 341 339 335 331 327 326 326 325 327 330 323 298 267 247 240 240 242 244 244 242 242 242 239 239 237 231 226 227 230 233 235 237
158 159 159 156 154 152 152 151 149 143 133 126 118 112 112 92 63 62 335 309 319 326 328 328 331 332 329 329 332 332 332 335 337 339 341 342 342 343 343 342 342 345 347 345 339 336 339 340 339 338 337 337 341 341 338 334 332 328 327 328 329 328 328 328 326 317 298 271 250 239 236 241 245 243 241 240 240 236 231 227 226 229 231 232 234
158 160 160 157 155 155 154 150 147 141 131 125 117 108 106 101 97 122 190 312 322 335 342 341 342 342 339 339 340 338 338 340 341 343 344 344 343 345 346 346 348 351 353 352 349 346 344 340 338 339 338 335 337 337 335 334 332 330 327 326 328 329 324 320 322 323 318 306 286 260 239 235 241 242 238 238 240 238 233 228 227 229 230 230 233
160 160 159 157 156 156 155 152 147 139 129 123 111 97 88 74 73 134 194 333 336 342 353 356 355 354 354 352 350 347 347 347 347 347 346 345 344 345 347 350 353 355 358 1 1 353 347 341 337 338 337 334 332 332 333 333 330 328 328 326 325 325 320 316 316 313 310 307 302 288 263 241 236 238 237 236 238 239 236 229 226 227 228 228 229
162 159 158 156 155 155 154 151 147 139 132 125 112 98 83 58 28 343 328 346 24 43 11 9 5 2 3 2 358 354 352 352 351 350 349 347 346 345 347 351 355 358 2 4 358 350 347 343 338 335 334 331 329 326 328 331 330 328 326 323 321 320 316 313 312 308 304 302 301 300 291 268 245 237 236 237 236 237 236 232 228 228 228 225 222
163 160 159 156 154 154 153 151 147 140 135 129 116 106 100 84 47 357 342 344 345 343 359 14 18 14 9 3 360 358 356 355 354 352 349 348 348 347 347 352 357 0 4 4 354 345 344 343 338 334 331 329 328 326 324 326 326 326 324 320 318 317 316 315 313 309 308 307 302 300 299 288 268 247 236 235 235 234 234 232 229 229 227 220 214
160 159 158 156 153 152 152 152 147 141 137 133 123 115 114 115 108 56 350 331 320 320 333 354 14 22 14 2 358 358 358 356 354 353 352 352 352 352 355 360 359 358 359 360 354 346 342 340 337 333 329 326 326 326 324 323 324 324 322 320 320 318 316 315 315 313 310 308 303 299 297 295 288 269 247 237 235 233 232 231 228 228 223 214 205
156 154 154 154 152 151 151 150 147 143 141 135 128 125 127 130 134 140 245 283 286 298 319 342 2 18 21 13 8 5 359 356 354 353 353 353 355 358 2 360 354 350 350 350 349 343 338 336 334 331 328 326 324 324 322 321 323 323 320 318 319 319 316 314 315 315 312 305 300 299 296 294 293 284 265 243 233 233 233 227 226 228 222 208 197
155 153 152 153 152 151 150 147 145 145 143 137 132 133 135 138 143 153 193 262 272 285 319 346 1 8 12 15 16 9 359 358 2 4 3 4 6 7 5 354 345 344 342 341 340 338 335 333 330 329 328 326 324 323 321 320 322 322 320 319 318 316 317 317 315 313 310 302 297 297 295 293 295 293 282 256 230 229 228 221 222 229 218 203 193
157 155 153 153 152 151 148 146 146 146 143 139 137 138 139 139 141 150 171 264 303 318 336 355 5 2 357 4 9 2 353 358 8 10 8 8 8 6 0 353 347 342 336 332 332 333 331 330 331 332 331 328 325 322 319 320 323 323 321 320 318 317 321 322 317 313 311 305 300 299 298 296 299 299 290 268 232 220 220 213 213 223 214 199 191
154 153 153 152 152 152 150 148 148 147 145 143 141 141 140 138 140 147 150 47 20 3 357 360 1 354 352 1 5 356 346 351 358 357 355 359 1 359 356 352 347 342 336 331 332 334 332 333 338 339 335 330 328 324 319 319 324 325 323 321 321 321 325 328 324 320 318 314 309 306 302 299 297 296 293 277 236 214 211 208 205 209 210 195 187
151 150 151 152 152 151 150 149 148 149 149 146 142 141 142 142 144 142 121 78 39 18 10 2 354 354 359 4 1 350 341 344 347 344 345 352 356 358 357 353 348 345 339 331 332 337 339 340 342 342 337 333 332 330 324 323 328 330 326 324 325 326 327 329 328 325 323 320 316 310 303 297 292 290 294 289 253 215 204 203 200 199 203 200 188
149 148 149 152 152 150 149 149 150 151 150 145 142 144 146 145 144 136 109 84 50 23 13 2 356 1 6 3 354 345 341 346 348 347 347 350 353 355 356 355 353 351 346 339 339 342 343 344 345 344 342 341 342 339 332 327 332 335 331 328 330 333 333 333 332 328 325 321 317 309 301 295 290 285 290 298 285 236 204 199 199 194 197 205 197
151 150 150 151 151 150 150 151 153 152 148 143 143 147 148 146 142 133 110 87 60 30 14 4 2 7 11 7 359 352 352 355 354 351 351 354 354 355 356 355 354 353 351 349 347 346 345 345 346 347 346 345 346 345 338 331 334 338 335 331 333 338 339 339 337 334 330 324 316 309 303 296 290 285 284 294 298 267 209 197 198 192 190 199 197
154 151 150 151 151 151 153 154 152 149 146 145 147 149 150 146 141 131 113 91 65 35 16 8 6 8 10 9 5 1 360 360 357 354 354 355 356 356 356 356 356 357 357 356 354 352 350 348 349 350 350 348 348 347 343 335 333 336 333 330 334 340 343 341 339 337 333 327 319 312 306 300 295 292 289 295 305 291 226 201 199 193 187 182 179
153 150 148 149 150 152 153 153 150 147 147 148 150 150 149 145 139 130 117 98 71 41 22 13 8 6 6 5 4 2 1 358 356 356 356 357 357 357 356 357 358 359 0 0 360 358 357 354 353 353 353 352 352 352 349 343 343 346 342 336 336 342 345 344 341 338 335 329 322 316 311 307 304 302 299 302 312 308 252 207 198 193 186 175 165
152 150 148 149 151 153 152 150 149 149 150 151 152 151 149 146 141 132 118 99 73 47 30 18 10 6 4 1 360 359 357 355 355 357 358 357 356 356 356 358 359 1 2 2 2 2 2 359 357 355 354 354 355 355 353 350 352 355 353 347 344 347 348 345 341 340 337 332 324 317 315 315 315 316 316 313 313 310 279 215 198 193 184 174 169
153 152 151 152 153 153 151 151 151 152 152 153 153 152 150 148 144 135 121 102 81 54 33 20 12 8 3 359 356 354 352 353 355 358 358 357 357 356 357 358 1 3 3 3 4 4 3 2 360 358 356 355 355 355 354 351 352 356 357 355 354 353 352 349 347 345 343 340 334 326 323 324 325 326 327 323 314 305 284 224 195 191 187 179 175
155 154 155 155 153 152 151 152 153 153 154 154 155 155 154 150 145 137 124 103 81 58 34 19 12 7 1 357 354 351 350 352 355 357 358 358 357 357 358 359 1 4 5 5 6 5 4 4 3 2 0 358 356 355 354 352 353 357 359 359 358 357 356 356 354 351 348 348 347 341 335 333 334 334 332 330 324 313 286 225 191 184 185 182 177
157 156 155 155 154 153 154 155 155 156 156 157 157 158 156 152 146 141 129 107 80 56 33 19 11 4 359 355 352 350 350 353 355 357 358 358 357 357 358 360 1 3 4 5 6 6 5 6 6 6 4 2 359 358 357 354 354 358 0 1 0 360 359 360 360 358 355 357 360 359 354 348 344 341 338 335 335 334 321 239 192 181 177 177 178
158 156 156 156 156 156 157 157 158 157 158 159 160 159 157 153 149 144 133 111 81 52 29 16 9 2 355 351 349 350 352 355 356 357 356 355 355 355 357 359 1 3 4 5 6 6 6 6 7 8 7 5 3 2 1 358 355 357 360 1 1 1 2 3 4 3 1 1 5 6 4 360 355 354 351 347 347 353 359 1 342 182 177 172 172
159 157 157 157 158 158 157 157 158 158 159 161 162 160 159 156 151 147 142 123 91 54 25 12 6 358 351 346 346 349 353 354 355 355 354 353 353 354 355 357 360 2 4 5 6 6 6 6 7 8 9 8 6 5 4 1 357 356 358 359 1 2 4 5 6 6 6 6 7 8 10 11 9 7 4 1 359 1 3 5 7 16 174 174 171
158 158 158 159 159 158 157 159 160 160 161 163 163 162 162 160 156 156 155 138 103 50 19 8 358 350 346 344 345 348 352 353 353 352 352 352 352 353 353 355 357 360 2 5 6 7 7 7 7 8 10 9 7 6 4 1 357 355 356 358 2 4 6 7 6 8 11 13 11 10 14 17 16 12 8 5 4 3 2 4 10 14 17 49 168